"startDT [UTC]","vpos","CH4 [ppm]","stdev(CH4) [ppm]","CO2 [ppm]","stdev(CO2) [ppm]","H2O [ppm]","stdev(H2O)","p_LGR [torr]","T_LGR [C]","mt1_LGR [us]","mt2_LGR [us]","T_ECpre [C]","T_EC1 [C]","T_EC2 [C]","p_inlet [hPa]","p_in [hPa]","p_out [hPa]","T_inlet [C]","RH_inlet [%]","dwpt_inlet [C]","T_vent [C]","RH_vent [%]","dwpt_vent [C]","flow_vent [l min-1]","flow_inlet [l min-1]","dwpt_sample [C]","T_room [C]"
2013-05-31 00:00:00,0.0,1.9234,0.0008,407.25,0.41,477.1,27.1,138.05,31.57,24.67,36.41,0.04,-272.76,-272.76,-46,571,-931,26.0,16.5,-1.4,25.9,17.1,-0.9,5.73,2.33,-19.9,30.6
2013-05-31 00:01:00,0.0,1.9232,0.0011,407.24,0.40,475.4,26.9,138.05,31.57,24.67,36.41,0.04,-272.76,-272.76,-46,571,-931,26.0,16.4,-1.4,25.9,17.1,-1.0,5.73,2.29,-19.9,30.5
2013-05-31 00:02:00,0.0,1.9239,0.0010,407.26,0.43,478.5,26.2,138.05,31.57,24.67,36.41,0.04,-272.77,-272.77,-45,571,-931,26.0,16.4,-1.5,25.9,17.1,-1.0,5.73,2.36,-19.9,30.6
2013-05-31 00:03:00,0.0,1.9235,0.0010,407.12,0.41,484.8,31.9,138.05,31.57,24.67,36.42,0.04,-272.76,-272.76,-45,571,-931,26.0,16.6,-1.3,25.9,17.2,-0.8,5.73,2.40,-19.9,30.5
2013-05-31 00:04:00,0.0,1.9232,0.0009,407.24,0.52,470.3,27.0,138.05,31.57,24.67,36.41,0.04,-272.76,-272.76,-46,571,-931,26.0,16.7,-1.3,25.9,17.3,-0.8,5.73,2.33,-19.9,30.5
2013-05-31 00:05:00,0.0,1.9231,0.0008,407.13,0.49,474.9,33.7,138.05,31.57,24.67,36.42,0.04,-272.76,-272.77,-46,571,-931,26.0,16.8,-1.2,25.9,17.5,-0.7,5.73,2.28,-19.9,30.5
2013-05-31 00:06:00,0.0,1.9236,0.0009,407.18,0.43,476.4,30.9,138.05,31.57,24.67,36.41,0.04,-272.76,-272.76,-46,571,-931,26.0,16.6,-1.3,25.9,17.3,-0.7,5.73,2.35,-19.9,30.5
2013-05-31 00:07:00,0.0,1.9232,0.0009,407.26,0.42,474.5,31.7,138.05,31.56,24.67,36.41,0.04,-272.76,-272.77,-45,571,-931,26.0,16.5,-1.3,25.9,17.2,-0.9,5.73,2.40,-19.9,30.6
2013-05-31 00:08:00,0.0,1.9236,0.0010,407.08,0.46,480.2,34.8,138.05,31.56,24.67,36.42,0.04,-272.76,-272.76,-45,571,-930,26.0,16.6,-1.3,25.9,17.2,-0.9,5.73,2.34,-19.9,30.6
2013-05-31 00:09:00,0.0,1.9238,0.0010,407.07,0.42,481.7,30.1,138.05,31.56,24.67,36.41,0.04,-272.77,-272.77,-46,571,-931,26.0,16.6,-1.3,25.9,17.2,-0.8,5.73,2.29,-19.9,30.6
2013-05-31 00:10:00,0.0,1.9235,0.0009,407.07,0.46,491.8,32.1,138.05,31.56,24.67,36.41,0.04,-272.76,-272.76,-46,571,-931,26.0,16.5,-1.4,25.9,17.1,-0.9,5.73,2.34,-19.9,30.6
2013-05-31 00:11:00,0.0,1.9232,0.0009,406.98,0.41,486.3,32.4,138.05,31.56,24.67,36.41,0.04,-272.76,-272.77,-46,571,-930,26.0,16.5,-1.4,25.9,17.1,-0.9,5.73,2.39,-19.9,30.5
2013-05-31 00:12:00,0.0,1.9235,0.0007,407.13,0.44,478.0,32.1,138.05,31.56,24.67,36.41,0.04,-272.77,-272.77,-46,571,-931,26.0,16.6,-1.3,25.9,17.3,-0.8,5.73,2.37,-19.9,30.5
2013-05-31 00:13:00,0.0,1.9234,0.0011,407.05,0.43,475.7,31.0,138.05,31.56,24.67,36.41,0.04,-272.76,-272.76,-45,571,-931,26.0,16.6,-1.3,25.9,17.3,-0.8,5.73,2.30,-19.9,30.6
2013-05-31 00:14:00,0.0,1.9230,0.0009,407.15,0.33,490.3,29.3,138.05,31.56,24.67,36.40,0.04,-272.76,-272.76,-45,571,-931,26.0,16.4,-1.4,25.9,17.1,-0.9,5.73,2.30,-19.9,30.6
2013-05-31 00:15:00,0.0,1.9233,0.0010,407.17,0.43,481.5,33.2,138.05,31.56,24.67,36.41,0.04,-272.76,-272.76,-46,571,-931,26.0,16.4,-1.5,25.9,17.1,-1.0,5.73,2.37,-19.9,30.6
2013-05-31 00:16:00,0.0,1.9237,0.0010,407.16,0.46,482.0,27.3,138.05,31.56,24.66,36.41,0.04,-272.76,-272.76,-46,571,-931,26.0,16.4,-1.4,25.9,17.1,-1.0,5.73,2.40,-19.9,30.6
2013-05-31 00:17:00,0.0,1.9238,0.0011,407.24,0.47,482.5,29.0,138.05,31.56,24.67,36.42,0.04,-272.76,-272.76,-46,571,-931,26.0,16.5,-1.3,25.9,17.2,-0.8,5.73,2.32,-19.9,30.6
2013-05-31 00:18:00,0.0,1.9233,0.0008,407.15,0.48,478.4,27.2,138.05,31.57,24.67,36.42,0.04,-272.76,-272.76,-46,571,-931,26.0,16.4,-1.4,25.9,17.1,-0.9,5.73,2.29,-19.9,30.6
2013-05-31 00:19:00,0.0,1.9236,0.0009,407.17,0.40,483.4,25.8,138.05,31.57,24.67,36.41,0.04,-272.76,-272.76,-45,571,-931,26.0,16.4,-1.5,25.9,17.1,-1.0,5.73,2.34,-19.9,30.6
2013-05-31 00:20:00,0.0,1.9239,0.0010,407.15,0.43,478.1,28.2,138.05,31.56,24.67,36.41,0.04,-272.76,-272.76,-45,571,-931,26.0,16.4,-1.5,25.9,17.1,-1.0,5.73,2.40,-19.9,30.6
2013-05-31 00:21:00,0.0,1.9235,0.0010,407.18,0.38,475.2,26.2,138.05,31.56,24.67,36.41,0.04,-272.76,-272.76,-46,571,-930,26.0,16.6,-1.3,25.9,17.3,-0.8,5.73,2.36,-19.9,30.5
2013-05-31 00:22:00,0.0,1.9238,0.0007,407.12,0.44,483.6,28.5,138.05,31.57,24.67,36.41,0.04,-272.76,-272.77,-46,571,-931,26.0,16.6,-1.3,25.9,17.3,-0.8,5.73,2.30,-19.9,30.5
2013-05-31 00:23:00,0.0,1.9237,0.0009,407.05,0.41,479.6,28.6,138.05,31.56,24.67,36.41,0.04,-272.76,-272.76,-46,571,-931,26.0,16.6,-1.3,25.9,17.2,-0.8,5.73,2.31,-19.9,30.5
2013-05-31 00:24:00,0.0,1.9240,0.0012,407.10,0.40,484.4,27.4,138.05,31.57,24.67,36.41,0.04,-272.76,-272.76,-46,571,-931,26.0,16.6,-1.3,25.9,17.3,-0.8,5.73,2.38,-19.9,30.5
2013-05-31 00:25:00,0.0,1.9236,0.0008,407.09,0.45,470.8,33.1,138.05,31.56,24.67,36.41,0.04,-272.77,-272.77,-46,571,-931,26.0,16.6,-1.3,25.9,17.2,-0.8,5.73,2.38,-19.9,30.5
2013-05-31 00:26:00,0.0,1.9238,0.0009,407.02,0.45,481.1,29.2,138.05,31.56,24.67,36.41,0.04,-272.76,-272.76,-46,571,-931,26.0,16.4,-1.5,25.9,17.1,-1.0,5.73,2.31,-19.9,30.5
2013-05-31 00:27:00,0.0,1.9238,0.0008,407.08,0.42,482.9,40.3,138.05,31.56,24.67,36.41,0.04,-272.76,-272.76,-46,571,-931,26.0,16.2,-1.6,25.9,16.9,-1.1,5.73,2.29,-19.9,30.5
2013-05-31 00:28:00,0.0,1.9233,0.0008,407.00,0.45,475.9,30.4,138.05,31.56,24.67,36.41,0.04,-272.76,-272.76,-46,571,-931,26.0,16.3,-1.6,25.9,16.9,-1.1,5.73,2.36,-19.9,30.5
2013-05-31 00:29:00,0.0,1.9239,0.0010,407.11,0.42,475.6,28.4,138.05,31.56,24.67,36.41,0.04,-272.76,-272.76,-46,571,-931,26.0,16.3,-1.5,25.9,17.0,-1.0,5.73,2.40,-19.9,30.5
2013-05-31 00:30:00,0.0,1.9240,0.0010,407.06,0.42,478.5,29.3,138.05,31.56,24.67,36.41,0.04,-272.76,-272.76,-46,571,-930,26.0,16.5,-1.3,25.9,17.2,-0.8,5.73,2.35,-19.9,30.5
2013-05-31 00:31:00,0.0,1.9239,0.0009,407.03,0.33,473.9,32.9,138.05,31.56,24.67,36.42,0.04,-272.76,-272.76,-45,571,-931,26.0,16.6,-1.3,25.9,17.3,-0.8,5.73,2.29,-19.9,30.5
2013-05-31 00:32:00,0.0,1.9240,0.0009,407.04,0.41,470.4,30.8,138.05,31.56,24.67,36.42,0.04,-272.76,-272.76,-45,571,-931,26.0,16.6,-1.3,25.9,17.3,-0.8,5.73,2.32,-19.9,30.5
2013-05-31 00:33:00,0.0,1.9242,0.0011,407.05,0.40,478.2,30.1,138.05,31.56,24.67,36.42,0.04,-272.76,-272.76,-46,571,-931,26.0,16.4,-1.5,25.9,17.1,-0.9,5.73,2.39,-19.9,30.6
2013-05-31 00:34:00,0.0,1.9241,0.0010,407.14,0.38,478.6,28.5,138.05,31.56,24.67,36.40,0.04,-272.76,-272.76,-46,571,-931,26.0,16.4,-1.5,25.9,17.0,-1.0,5.73,2.38,-19.9,30.6
2013-05-31 00:35:00,0.0,1.9242,0.0008,407.00,0.44,472.9,28.5,138.05,31.56,24.66,36.41,0.04,-272.76,-272.77,-46,571,-931,26.0,16.4,-1.4,25.9,17.1,-0.9,5.73,2.30,-19.9,30.5
2013-05-31 00:36:00,0.0,1.9241,0.0009,407.01,0.40,478.5,31.8,138.05,31.56,24.67,36.42,0.04,-272.76,-272.77,-46,571,-931,26.0,16.4,-1.5,25.9,17.0,-1.0,5.73,2.30,-19.9,30.5
2013-05-31 00:37:00,0.0,1.9243,0.0009,407.02,0.36,475.9,28.6,138.05,31.56,24.67,36.41,0.04,-272.76,-272.76,-45,571,-931,26.0,16.5,-1.4,25.9,17.2,-0.9,5.73,2.37,-19.9,30.5
2013-05-31 00:38:00,0.0,1.9241,0.0009,407.00,0.42,473.0,28.1,138.05,31.56,24.67,36.41,0.04,-272.76,-272.76,-45,571,-931,26.0,16.6,-1.3,25.9,17.2,-0.8,5.73,2.39,-19.9,30.5
2013-05-31 00:39:00,0.0,1.9241,0.0011,407.01,0.37,470.4,28.8,138.05,31.56,24.67,36.42,0.04,-272.76,-272.77,-46,571,-931,26.0,16.6,-1.3,25.9,17.3,-0.8,5.73,2.34,-19.9,30.5
2013-05-31 00:40:00,0.0,1.9237,0.0009,407.04,0.40,476.1,32.4,138.05,31.56,24.67,36.41,0.04,-272.76,-272.76,-46,571,-931,26.0,16.4,-1.4,25.9,17.1,-0.9,5.73,2.29,-19.9,30.5
2013-05-31 00:41:00,0.0,1.9242,0.0009,407.00,0.42,473.1,26.4,138.05,31.55,24.66,36.41,0.04,-272.76,-272.76,-46,571,-931,26.0,16.5,-1.4,25.9,17.2,-0.9,5.73,2.33,-20.0,30.5
2013-05-31 00:42:00,0.0,1.9237,0.0009,406.95,0.47,475.6,32.4,138.05,31.55,24.67,36.41,0.04,-272.77,-272.77,-46,571,-931,26.0,16.5,-1.4,25.9,17.2,-0.9,5.73,2.39,-19.9,30.5
2013-05-31 00:43:00,0.0,1.9239,0.0007,406.95,0.43,477.9,26.5,138.05,31.55,24.67,36.42,0.04,-272.77,-272.76,-45,571,-930,26.0,16.5,-1.4,25.9,17.2,-0.9,5.73,2.36,-19.9,30.5
2013-05-31 00:44:00,0.0,1.9240,0.0010,406.97,0.44,478.9,31.3,138.05,31.56,24.67,36.42,0.04,-272.76,-272.76,-45,571,-931,26.0,16.6,-1.3,25.9,17.3,-0.8,5.73,2.29,-19.9,30.5
2013-05-31 00:45:00,0.0,1.9244,0.0008,406.82,0.37,471.3,29.9,138.05,31.56,24.67,36.42,0.04,-272.76,-272.76,-46,571,-931,26.0,16.7,-1.2,25.9,17.4,-0.7,5.73,2.33,-19.9,30.5
2013-05-31 00:46:00,0.0,1.9241,0.0011,406.86,0.44,469.6,32.9,138.05,31.56,24.67,36.41,0.04,-272.76,-272.76,-46,571,-930,26.0,16.6,-1.3,25.9,17.3,-0.8,5.73,2.38,-19.9,30.6
2013-05-31 00:47:00,0.0,1.9239,0.0009,406.86,0.48,483.7,25.8,138.05,31.55,24.67,36.41,0.04,-272.76,-272.76,-46,571,-931,26.0,16.7,-1.2,25.9,17.4,-0.7,5.73,2.38,-20.0,30.5
2013-05-31 00:48:00,0.0,1.9238,0.0008,407.01,0.45,480.1,31.8,138.05,31.56,24.67,36.41,0.04,-272.76,-272.76,-46,571,-931,26.0,16.7,-1.2,25.9,17.3,-0.7,5.73,2.32,-20.0,30.5
2013-05-31 00:49:00,0.0,1.9246,0.0009,406.96,0.45,472.4,30.0,138.05,31.56,24.66,36.41,0.04,-272.76,-272.77,-45,571,-930,26.0,16.9,-1.0,25.9,17.6,-0.6,5.73,2.29,-20.0,30.5
2013-05-31 00:50:00,0.0,1.9244,0.0007,407.04,0.35,472.8,29.5,138.05,31.56,24.67,36.41,0.04,-272.76,-272.76,-45,571,-930,26.0,16.8,-1.2,25.9,17.4,-0.7,5.73,2.35,-20.0,30.5
2013-05-31 00:51:00,0.0,1.9246,0.0009,407.04,0.41,477.0,29.4,138.05,31.56,24.67,36.41,0.04,-272.76,-272.76,-46,571,-931,26.0,16.6,-1.3,25.9,17.3,-0.8,5.73,2.39,-20.0,30.5
2013-05-31 00:52:00,0.0,1.9243,0.0009,406.90,0.42,476.2,27.7,138.05,31.56,24.67,36.42,0.04,-272.77,-272.77,-46,571,-931,26.0,16.5,-1.3,25.9,17.2,-0.9,5.73,2.36,-20.0,30.5
2013-05-31 00:53:00,0.0,1.9246,0.0009,407.01,0.43,475.2,28.1,138.05,31.55,24.66,36.41,0.04,-272.76,-272.76,-46,571,-931,26.0,16.4,-1.5,25.9,17.0,-1.0,5.73,2.30,-20.0,30.5
2013-05-31 00:54:00,0.0,1.9242,0.0010,407.02,0.36,478.4,29.4,138.05,31.55,24.67,36.41,0.04,-272.76,-272.76,-46,571,-931,26.0,16.4,-1.5,25.9,17.1,-1.0,5.73,2.31,-20.0,30.5
2013-05-31 00:55:00,0.0,1.9243,0.0009,406.94,0.41,472.4,33.0,138.05,31.55,24.67,36.41,0.04,-272.77,-272.76,-45,571,-931,26.0,16.4,-1.4,25.9,17.1,-1.0,5.73,2.37,-20.0,30.5
2013-05-31 00:56:00,0.0,1.9241,0.0010,407.01,0.38,475.2,32.1,138.05,31.55,24.67,36.41,0.04,-272.76,-272.77,-45,571,-931,26.0,16.7,-1.2,25.9,17.3,-0.8,5.73,2.39,-19.9,30.5
2013-05-31 00:57:00,0.0,1.9245,0.0008,406.87,0.39,472.4,34.1,138.05,31.55,24.67,36.41,0.04,-272.76,-272.76,-46,571,-931,26.0,16.5,-1.4,25.9,17.2,-0.9,5.73,2.33,-19.9,30.5
2013-05-31 00:58:00,0.0,1.9237,0.0009,407.01,0.46,479.6,32.1,138.05,31.55,24.67,36.41,0.04,-272.76,-272.76,-46,571,-931,26.0,16.4,-1.4,25.9,17.1,-0.9,5.73,2.30,-19.9,30.5
2013-05-31 00:59:00,0.0,1.9238,0.0009,406.93,0.40,478.3,27.3,138.05,31.55,24.67,36.42,0.04,-272.76,-272.76,-46,571,-930,26.0,16.4,-1.5,25.9,17.1,-1.0,5.73,2.36,-19.9,30.5
2013-05-31 01:00:00,0.0,1.9240,0.0007,406.98,0.35,478.4,25.8,138.05,31.55,24.67,36.41,0.04,-272.76,-272.76,-46,571,-931,26.0,16.6,-1.3,25.9,17.3,-0.8,5.73,2.39,-19.9,30.5
2013-05-31 01:01:00,0.0,1.9241,0.0009,406.97,0.42,465.3,26.3,138.05,31.55,24.67,36.42,0.04,-272.76,-272.76,-45,571,-931,26.0,16.6,-1.3,25.9,17.3,-0.8,5.73,2.34,-19.9,30.6
2013-05-31 01:02:00,0.0,1.9243,0.0009,406.88,0.42,467.6,34.2,138.05,31.55,24.67,36.42,0.04,-272.76,-272.76,-45,571,-930,26.0,16.6,-1.3,25.9,17.3,-0.8,5.73,2.29,-19.9,30.6
2013-05-31 01:03:00,0.0,1.9245,0.0007,406.86,0.39,468.3,29.9,138.05,31.55,24.66,36.42,0.04,-272.76,-272.76,-46,571,-931,26.0,16.7,-1.2,25.9,17.4,-0.7,5.73,2.34,-19.9,30.6
2013-05-31 01:04:00,0.0,1.9243,0.0009,406.91,0.38,471.4,37.0,138.05,31.55,24.67,36.41,0.04,-272.76,-272.76,-46,571,-931,26.0,16.9,-1.0,25.9,17.6,-0.5,5.73,2.39,-19.9,30.6
2013-05-31 01:05:00,0.0,1.9240,0.0010,406.90,0.39,478.0,27.0,138.05,31.55,24.67,36.41,0.04,-272.76,-272.76,-46,571,-931,26.0,16.7,-1.2,25.9,17.4,-0.7,5.73,2.37,-20.0,30.5
2013-05-31 01:06:00,0.0,1.9240,0.0009,406.96,0.46,474.8,34.3,138.05,31.55,24.67,36.42,0.29,-270.62,-271.39,-46,571,-930,26.0,16.9,-1.1,25.9,17.5,-0.6,5.42,2.36,-24.7,30.5
2013-05-31 01:07:00,0.0,1.9244,0.0008,407.02,0.36,476.2,25.8,138.05,31.55,24.67,36.41,0.04,-272.76,-272.76,-45,571,-931,26.0,17.0,-1.0,25.9,17.6,-0.5,5.73,2.30,-20.0,30.5
2013-05-31 01:08:00,0.0,1.9243,0.0010,406.95,0.47,474.4,32.7,138.05,31.55,24.67,36.41,0.04,-272.76,-272.76,-45,571,-931,26.0,16.9,-1.0,25.9,17.6,-0.6,5.73,2.38,-20.0,30.6
2013-05-31 01:09:00,0.0,1.9243,0.0008,406.88,0.35,475.5,33.8,138.05,31.55,24.67,36.41,0.04,-272.77,-272.76,-46,571,-930,26.0,16.8,-1.1,25.9,17.5,-0.6,5.73,2.39,-20.0,30.6
2013-05-31 01:10:00,0.0,1.9243,0.0011,406.94,0.41,468.7,33.7,138.05,31.55,24.67,36.41,0.04,-272.76,-272.76,-46,571,-931,26.0,17.0,-1.0,25.9,17.7,-0.5,5.73,2.33,-19.9,30.5
2013-05-31 01:11:00,0.0,1.9248,0.0009,406.93,0.35,475.5,27.5,138.05,31.55,24.66,36.41,0.04,-272.76,-272.76,-46,571,-931,26.0,17.0,-1.0,25.9,17.6,-0.5,5.73,2.29,-19.9,30.6
2013-05-31 01:12:00,0.0,1.9239,0.0009,406.86,0.49,477.4,31.1,138.05,31.55,24.67,36.41,0.04,-272.76,-272.76,-45,571,-931,26.0,16.8,-1.1,25.9,17.5,-0.6,5.73,2.35,-19.9,30.5
2013-05-31 01:13:00,0.0,1.9244,0.0009,406.76,0.37,471.7,28.9,138.05,31.55,24.67,36.42,0.04,-272.76,-272.76,-45,571,-930,26.0,16.7,-1.2,25.9,17.4,-0.7,5.73,2.40,-20.0,30.5
2013-05-31 01:14:00,0.0,1.9244,0.0009,406.91,0.36,473.6,33.2,138.05,31.54,24.67,36.42,0.04,-272.76,-272.76,-46,571,-931,26.0,16.6,-1.2,25.9,17.3,-0.8,5.73,2.34,-19.9,30.6
2013-05-31 01:15:00,0.0,1.9240,0.0011,406.86,0.42,467.6,32.4,138.05,31.55,24.67,36.42,0.04,-272.76,-272.76,-46,571,-931,26.0,16.7,-1.2,25.9,17.4,-0.7,5.73,2.29,-19.9,30.5
2013-05-31 01:16:00,0.0,1.9239,0.0007,406.78,0.40,485.7,32.9,138.05,31.55,24.67,36.41,0.04,-272.76,-272.76,-46,571,-931,26.0,17.0,-1.0,25.9,17.7,-0.5,5.73,2.33,-19.9,30.5
2013-05-31 01:17:00,0.0,1.9237,0.0009,406.76,0.37,474.8,27.3,138.05,31.55,24.67,36.42,0.04,-272.76,-272.76,-46,571,-931,26.0,17.0,-1.0,25.9,17.7,-0.5,5.73,2.39,-19.9,30.5
2013-05-31 01:18:00,0.0,1.9242,0.0010,406.82,0.43,476.7,34.4,138.05,31.55,24.67,36.41,0.04,-272.76,-272.76,-45,571,-931,26.0,16.9,-1.1,25.9,17.6,-0.6,5.73,2.36,-20.0,30.6
2013-05-31 01:19:00,0.0,1.9238,0.0008,406.81,0.44,476.8,29.7,138.05,31.54,24.67,36.41,0.04,-272.76,-272.76,-45,571,-930,26.0,17.1,-0.9,25.9,17.7,-0.4,5.73,2.29,-19.9,30.5
2013-05-31 01:20:00,0.0,1.9239,0.0008,406.77,0.40,477.2,27.3,138.05,31.55,24.67,36.41,0.04,-272.76,-272.76,-46,571,-931,26.0,16.8,-1.1,25.9,17.5,-0.6,5.73,2.33,-20.0,30.6
2013-05-31 01:21:00,0.0,1.9237,0.0007,406.74,0.41,467.5,29.8,138.05,31.55,24.67,36.42,0.04,-272.76,-272.76,-46,571,-931,26.0,16.9,-1.1,25.9,17.5,-0.6,5.73,2.39,-19.9,30.5
2013-05-31 01:22:00,0.0,1.9233,0.0010,406.86,0.40,479.4,30.2,138.05,31.55,24.67,36.41,0.04,-272.76,-272.76,-46,571,-930,26.0,16.8,-1.1,25.9,17.5,-0.6,5.73,2.36,-19.9,30.5
2013-05-31 01:23:00,0.0,1.9233,0.0010,406.88,0.43,477.9,26.8,138.05,31.55,24.67,36.41,0.04,-272.76,-272.76,-45,571,-930,26.0,16.7,-1.2,25.9,17.4,-0.7,5.73,2.30,-19.9,30.5
2013-05-31 01:24:00,0.0,1.9234,0.0011,406.79,0.44,480.8,27.4,138.05,31.55,24.67,36.41,0.04,-272.76,-272.76,-45,571,-931,26.0,16.8,-1.1,25.9,17.5,-0.6,5.73,2.32,-19.9,30.5
2013-05-31 01:25:00,0.0,1.9232,0.0010,406.67,0.44,477.8,30.6,138.05,31.55,24.67,36.42,0.04,-272.76,-272.76,-45,571,-931,26.0,16.7,-1.2,25.9,17.4,-0.7,5.73,2.38,-19.9,30.5
2013-05-31 01:26:00,0.0,1.9227,0.0010,406.69,0.48,472.0,28.7,138.05,31.55,24.67,36.42,0.04,-272.76,-272.76,-46,571,-930,26.0,16.6,-1.3,25.9,17.3,-0.8,5.73,2.38,-19.9,30.5
2013-05-31 01:27:00,0.0,1.9225,0.0009,406.69,0.40,474.2,33.7,138.05,31.54,24.67,36.41,0.04,-272.76,-272.76,-46,571,-931,26.0,16.7,-1.2,25.9,17.3,-0.8,5.73,2.31,-19.9,30.6
2013-05-31 01:28:00,0.0,1.9229,0.0010,406.82,0.46,470.8,28.9,138.05,31.54,24.67,36.41,0.04,-272.76,-272.76,-46,571,-931,26.0,16.8,-1.1,25.9,17.5,-0.6,5.73,2.30,-19.9,30.5
2013-05-31 01:29:00,0.0,1.9231,0.0009,406.81,0.40,474.7,27.1,138.05,31.54,24.67,36.42,0.04,-272.76,-272.76,-45,571,-930,26.0,17.1,-0.9,25.9,17.8,-0.4,5.73,2.37,-19.9,30.6
2013-05-31 01:30:00,0.0,1.9230,0.0008,406.85,0.43,471.8,30.7,138.05,31.54,24.67,36.41,0.04,-272.76,-272.77,-46,571,-931,26.0,16.8,-1.1,25.9,17.5,-0.6,5.73,2.39,-19.9,30.6
2013-05-31 01:31:00,0.0,1.9232,0.0007,406.75,0.41,472.3,30.3,138.05,31.54,24.67,36.41,0.04,-272.76,-272.76,-46,571,-931,26.0,16.8,-1.1,25.9,17.5,-0.6,5.73,2.32,-20.0,30.6
2013-05-31 01:32:00,0.0,1.9229,0.0009,406.78,0.40,480.2,33.6,138.05,31.54,24.67,36.41,0.04,-272.76,-272.76,-46,571,-931,26.0,16.8,-1.1,25.9,17.5,-0.6,5.73,2.30,-19.9,30.5
2013-05-31 01:33:00,0.0,1.9229,0.0008,406.79,0.41,469.8,31.7,138.05,31.54,24.67,36.41,0.04,-272.76,-272.76,-46,571,-930,26.0,16.6,-1.3,25.9,17.3,-0.8,5.73,2.36,-19.9,30.5
2013-05-31 01:34:00,0.0,1.9231,0.0010,406.63,0.44,477.3,30.5,138.05,31.54,24.67,36.42,0.04,-272.76,-272.76,-45,571,-931,26.0,16.4,-1.4,25.9,17.1,-1.0,5.73,2.39,-20.0,30.5
2013-05-31 01:35:00,0.0,1.9230,0.0009,406.84,0.53,481.7,33.5,138.05,31.54,24.67,36.41,0.04,-272.76,-272.76,-45,571,-931,26.0,16.6,-1.3,25.9,17.2,-0.8,5.73,2.33,-19.9,30.5
2013-05-31 01:36:00,0.0,1.9231,0.0008,406.77,0.45,475.4,32.2,138.05,31.54,24.67,36.41,0.04,-272.76,-272.76,-46,571,-930,26.0,16.7,-1.2,25.9,17.3,-0.8,5.73,2.29,-19.9,30.5
2013-05-31 01:37:00,0.0,1.9228,0.0009,406.76,0.46,490.2,36.8,138.05,31.54,24.67,36.41,0.04,-272.76,-272.76,-46,571,-931,26.0,16.6,-1.3,25.9,17.3,-0.8,5.73,2.35,-19.9,30.5
2013-05-31 01:38:00,0.0,1.9231,0.0008,406.83,0.45,473.8,28.6,138.05,31.54,24.67,36.41,0.04,-272.76,-272.76,-46,571,-931,26.0,16.7,-1.2,25.9,17.4,-0.7,5.73,2.39,-20.0,30.5
2013-05-31 01:39:00,0.0,1.9234,0.0008,406.78,0.38,462.3,33.7,138.05,31.54,24.67,36.42,0.04,-272.76,-272.76,-46,571,-930,26.0,16.9,-1.0,25.9,17.6,-0.5,5.73,2.34,-20.0,30.5
2013-05-31 01:40:00,0.0,1.9237,0.0007,406.76,0.45,475.5,29.3,138.05,31.54,24.67,36.41,0.04,-272.76,-272.76,-45,571,-931,26.0,16.7,-1.2,25.9,17.4,-0.7,5.73,2.29,-19.9,30.5
2013-05-31 01:41:00,0.0,1.9232,0.0009,406.75,0.38,481.5,32.7,138.05,31.54,24.67,36.42,0.04,-272.76,-272.76,-45,571,-931,26.0,16.6,-1.3,25.9,17.2,-0.8,5.73,2.34,-20.0,30.6
2013-05-31 01:42:00,0.0,1.9233,0.0010,406.81,0.42,476.3,34.1,138.05,31.54,24.67,36.42,0.04,-272.76,-272.76,-46,571,-930,26.0,16.9,-1.1,25.9,17.5,-0.6,5.73,2.39,-20.0,30.6
2013-05-31 01:43:00,0.0,1.9234,0.0010,406.67,0.43,483.2,31.8,138.05,31.54,24.67,36.42,0.04,-272.76,-272.77,-46,571,-930,26.0,17.2,-0.8,25.9,17.9,-0.3,5.73,2.35,-20.0,30.6
2013-05-31 01:44:00,0.0,1.9238,0.0011,406.83,0.41,471.0,31.2,138.05,31.54,24.66,36.41,0.04,-272.76,-272.76,-46,571,-931,26.0,17.2,-0.8,25.9,17.9,-0.3,5.73,2.29,-20.0,30.5
2013-05-31 01:45:00,0.0,1.9236,0.0009,406.80,0.40,476.3,29.1,138.05,31.54,24.67,36.41,0.04,-272.76,-272.76,-45,571,-930,26.0,16.8,-1.1,25.9,17.5,-0.6,5.73,2.32,-19.9,30.6
2013-05-31 01:46:00,0.0,1.9233,0.0009,406.78,0.37,480.9,32.4,138.05,31.54,24.67,36.41,0.04,-272.76,-272.77,-45,571,-930,26.0,16.8,-1.1,25.9,17.5,-0.6,5.73,2.39,-20.0,30.5
2013-05-31 01:47:00,0.0,1.9231,0.0009,406.76,0.42,478.2,28.9,138.05,31.54,24.67,36.41,0.04,-272.76,-272.76,-45,571,-931,26.0,16.8,-1.1,25.9,17.5,-0.6,5.73,2.39,-19.9,30.5
2013-05-31 01:48:00,0.0,1.9231,0.0009,406.83,0.43,479.4,26.5,138.05,31.54,24.67,36.41,0.04,-272.76,-272.76,-46,571,-930,26.0,16.8,-1.1,25.9,17.4,-0.7,5.73,2.32,-20.0,30.5
2013-05-31 01:49:00,0.0,1.9232,0.0010,406.85,0.37,474.2,28.0,138.05,31.54,24.67,36.41,0.04,-272.76,-272.76,-46,571,-930,26.0,16.8,-1.1,25.9,17.5,-0.6,5.73,2.29,-19.9,30.5
2013-05-31 01:50:00,0.0,1.9230,0.0010,406.83,0.43,474.4,30.4,138.05,31.54,24.67,36.41,0.04,-272.77,-272.76,-46,571,-931,26.0,16.9,-1.0,25.9,17.6,-0.5,5.73,2.34,-20.0,30.5
2013-05-31 01:51:00,0.0,1.9232,0.0010,406.83,0.37,480.3,31.4,138.05,31.54,24.67,36.41,0.04,-272.76,-272.76,-45,571,-930,26.0,16.8,-1.2,25.9,17.4,-0.7,5.73,2.40,-19.9,30.5
2013-05-31 01:52:00,0.0,1.9229,0.0009,406.64,0.41,479.6,30.6,138.05,31.54,24.67,36.41,0.04,-272.76,-272.76,-45,571,-930,26.0,16.9,-1.0,25.9,17.6,-0.5,5.73,2.35,-20.0,30.5
2013-05-31 01:53:00,0.0,1.9235,0.0009,406.70,0.40,473.5,30.8,138.05,31.53,24.66,36.41,0.04,-272.76,-272.76,-45,571,-930,26.0,16.9,-1.1,25.9,17.6,-0.6,5.73,2.30,-19.9,30.5
2013-05-31 01:54:00,0.0,1.9232,0.0008,406.73,0.37,478.9,27.9,138.05,31.53,24.67,36.41,0.04,-272.76,-272.76,-46,571,-931,26.0,16.9,-1.0,25.9,17.6,-0.5,5.73,2.31,-20.0,30.5
2013-05-31 01:55:00,0.0,1.9237,0.0009,406.83,0.44,475.8,32.7,138.05,31.53,24.67,36.41,0.04,-272.76,-272.76,-46,571,-930,26.0,17.0,-1.0,25.9,17.7,-0.5,5.73,2.38,-20.0,30.5
2013-05-31 01:56:00,0.0,1.9232,0.0008,406.77,0.46,477.0,33.0,138.05,31.53,24.67,36.41,0.04,-272.76,-272.76,-46,571,-930,26.0,16.8,-1.1,25.9,17.5,-0.6,5.73,2.38,-20.0,30.6
2013-05-31 01:57:00,0.0,1.9239,0.0010,406.84,0.37,470.2,28.9,138.05,31.53,24.66,36.41,0.04,-272.76,-272.77,-45,571,-931,26.0,17.0,-0.9,25.9,17.7,-0.5,5.73,2.31,-20.0,30.5
2013-05-31 01:58:00,0.0,1.9237,0.0009,406.67,0.44,470.5,30.9,138.05,31.53,24.67,36.41,0.04,-272.76,-272.76,-45,571,-930,26.0,17.0,-1.0,25.9,17.7,-0.5,5.73,2.30,-20.0,30.5
2013-05-31 01:59:00,0.0,1.9236,0.0010,406.85,0.51,475.0,31.0,138.06,31.53,24.67,36.41,0.04,-272.76,-272.76,-45,571,-931,26.0,17.0,-1.0,25.9,17.7,-0.5,5.73,2.36,-20.0,30.5
2013-05-31 02:00:00,0.0,1.9240,0.0008,406.78,0.40,483.6,30.1,138.05,31.53,24.67,36.41,0.04,-272.76,-272.76,-46,571,-931,26.0,17.0,-1.0,25.9,17.7,-0.5,5.73,2.39,-20.0,30.5
2013-05-31 02:01:00,0.0,1.9239,0.0011,406.76,0.37,472.3,29.0,138.05,31.53,24.67,36.41,0.04,-272.76,-272.76,-46,571,-930,26.0,16.9,-1.1,25.9,17.6,-0.6,5.73,2.34,-20.0,30.5
2013-05-31 02:02:00,0.0,1.9238,0.0010,406.82,0.43,472.8,27.0,138.05,31.53,24.67,36.41,0.04,-272.76,-272.76,-46,571,-930,26.0,16.8,-1.1,25.9,17.5,-0.7,5.73,2.29,-20.0,30.5
2013-05-31 02:03:00,0.0,1.9241,0.0008,406.89,0.41,472.2,31.2,138.05,31.53,24.67,36.41,0.04,-272.77,-272.77,-45,571,-931,26.0,16.7,-1.2,25.9,17.4,-0.8,5.73,2.34,-20.0,30.5
2013-05-31 02:04:00,0.0,1.9239,0.0009,406.74,0.39,473.7,27.2,138.05,31.53,24.67,36.41,0.04,-272.76,-272.76,-45,571,-930,26.0,16.8,-1.2,25.9,17.4,-0.7,5.73,2.40,-20.0,30.5
2013-05-31 02:05:00,0.0,1.9239,0.0010,406.69,0.40,472.3,29.9,138.05,31.53,24.67,36.41,0.04,-272.76,-272.76,-45,571,-930,26.0,17.1,-0.9,25.9,17.8,-0.4,5.73,2.36,-20.0,30.5
2013-05-31 02:06:00,0.0,1.9240,0.0010,406.80,0.40,469.4,32.8,138.06,31.53,24.67,36.40,0.04,-272.76,-272.76,-46,571,-931,26.0,17.2,-0.8,25.9,17.9,-0.4,5.73,2.29,-20.0,30.5
2013-05-31 02:07:00,0.0,1.9242,0.0009,406.79,0.47,472.6,31.0,138.06,31.53,24.67,36.41,0.04,-272.76,-272.77,-46,571,-930,26.0,17.0,-0.9,25.9,17.7,-0.5,5.73,2.32,-20.0,30.5
2013-05-31 02:08:00,0.0,1.9241,0.0010,406.83,0.42,479.3,27.5,138.05,31.53,24.67,36.41,0.04,-272.76,-272.76,-46,571,-930,26.0,17.0,-1.0,25.9,17.6,-0.5,5.73,2.39,-20.0,30.5
2013-05-31 02:09:00,0.0,1.9243,0.0008,406.84,0.42,473.1,30.6,138.06,31.53,24.67,36.41,0.04,-272.76,-272.76,-45,571,-931,26.0,16.8,-1.1,25.9,17.5,-0.7,5.73,2.38,-20.0,30.5
2013-05-31 02:10:00,0.0,1.9240,0.0009,406.71,0.46,473.7,32.3,138.06,31.53,24.67,36.42,0.04,-272.76,-272.77,-45,571,-930,25.9,16.7,-1.2,25.9,17.4,-0.7,5.73,2.30,-20.0,30.5
2013-05-31 02:11:00,0.0,1.9244,0.0010,406.75,0.34,465.1,35.6,138.06,31.53,24.67,36.41,0.04,-272.76,-272.76,-45,571,-930,26.0,16.6,-1.3,25.9,17.3,-0.8,5.73,2.30,-20.0,30.5
2013-05-31 02:12:00,0.0,1.9240,0.0010,406.74,0.40,468.0,30.6,138.06,31.53,24.67,36.41,0.04,-272.76,-272.76,-46,571,-930,26.0,17.1,-0.9,25.9,17.8,-0.5,5.73,2.38,-20.0,30.5
2013-05-31 02:13:00,0.0,1.9244,0.0008,406.83,0.39,472.4,28.8,138.05,31.53,24.67,36.41,0.04,-272.76,-272.76,-46,571,-931,26.0,17.3,-0.8,25.9,17.9,-0.3,5.73,2.39,-20.0,30.5
2013-05-31 02:14:00,0.0,1.9241,0.0010,406.68,0.47,469.2,35.2,138.06,31.53,24.67,36.42,0.04,-272.76,-272.77,-45,571,-930,26.0,17.3,-0.7,25.9,18.0,-0.2,5.73,2.30,-20.0,30.5
2013-05-31 02:15:00,0.0,1.9244,0.0010,406.87,0.42,477.4,30.0,138.06,31.52,24.67,36.41,0.04,-272.76,-272.76,-45,571,-930,26.0,17.5,-0.6,25.9,18.2,-0.1,5.73,2.30,-20.0,30.5
2013-05-31 02:16:00,0.0,1.9243,0.0010,406.73,0.37,473.4,35.3,138.06,31.52,24.67,36.41,0.04,-272.76,-272.76,-46,571,-931,26.0,17.2,-0.8,25.9,17.9,-0.4,5.73,2.38,-20.0,30.5